www.pogodaiklimat.ru

Погода и климат >> Архив погоды >> Азербайджан >> Нефтечала


ПОГОДА в Нефтечале

  • Прогноз погоды в Нефтечале
  • Монитор погоды в Нефтечале

АРХИВ ПОГОДЫ в Нефтечале

Время (UTC), дата Ветер
(напр.,м/с)
 
Видим.   Явления Облачность Т
(С)
Тd
(С)
f
(%)
Тe
(С)
Тes
(С)
Комфортность P
(гПа)
Po
(гПа)
Тmin
(С)
Tmax
(С)
R
(мм)
R24
(мм)
S
(см)
06 10.07 Ю 5 20 км 3/3 600 м
[Cu med, cong]
+28.7 +17.4 50 +33 +38 очень
душно
1008.1 1010.8 +24.2
12 10.07 В 5 20 км ясно +31.1 +17.6 44 +35 +41 очень
душно
1005.6 1008.3
18 10.07 СВ 1 10 км ясно +25.8 +18.7 65 +31 +31 очень
душно
1007.1 1009.8 +32.7
00 11.07 СЗ 2 10 км ясно +22.4 +20.6 90 +29 +29 очень
душно
1005.5 1008.2
06 11.07 С 3 20 км 3/3 600 м
[Cu med, cong]
+28.8 +20.8 62 +36 +44 очень
душно
1006.1 1008.8 +22.3
12 11.07 С 6 20 км ясно +30.5 +21.0 57 +38 +42 очень
душно
1002.0 1004.7
18 11.07 СВ 3 10 км ясно +25.8 +21.6 78 +33 +33 очень
душно
1002.2 1004.9 +30.8
00 12.07 ЮЗ 1 10 км 8/0
[Ac und]
+23.0 +21.2 90 +31 +31 очень
душно
1001.4 1004.1
06 12.07 СВ 3 20 км ясно +29.8 +24.2 72 +42 +53 опасность
перегрева
1000.3 1003.0 +23.0
12 12.07 С 4 20 км ясно +30.1 +22.2 63 +39 +47 очень
душно
998.2 1000.9
18 12.07 З 7 10 км ясно +27.1 +20.8 68 +34 +34 очень
душно
1003.1 1005.8 +31.1
00 13.07 З 8 10 км ясно +24.8 +19.6 73 +30 +30 душно 1005.4 1008.1
06 13.07 СЗ 7 20 км 4/4 600 м
[Cu med, cong]
+26.0 +20.1 70 +32 +34 очень
душно
1006.3 1009.0 +24.2
12 13.07 СЗ 5 20 км 6/6 600 м
[Cu med, cong]
+26.7 +18.6 61 +32 +34 очень
душно
1005.4 1008.1
18 13.07 СЗ 5 10 км 8/8 600 м
[Sc]
+24.1 +16.9 64 +28 +28 душно 1007.6 1010.3 +27.7
00 14.07 З 7 10 км ясно +24.3 +16.7 63 +28 +28 душно 1007.1 1009.8
06 14.07 З 7 20 км 8/0
[Ac und]
+26.2 +15.8 53 +29 +31 жарко 1009.4 1012.1 +24.1
12 14.07 С 3 20 км 8/8 600 м
[Sc]
+26.3 +17.4 58 +30 +32 душно 1008.5 1011.2
18 14.07 СЗ 3 10 км слаб. дождь 10/10 600 м
[Frnb Ns]
+23.1 +18.6 76 +29 +29 очень
душно
1011.5 1014.2 +27.9
00 15.07 СЗ 1 10 км {дождь} 6/5 600 м
[Sc]
+22.5 +18.3 77 +28 +28 душно 1009.2 1011.9
06 15.07 ЮВ 3 20 км 10/10 600 м
[Sc]
+24.7 +19.2 71 +30 +30 очень
душно
1009.2 1011.9 +22.4 0.4
12 15.07 С 3 20 км ясно +27.4 +19.3 61 +33 +42 очень
душно
1005.5 1008.2
18 15.07 В 2 10 км ясно +23.8 +20.1 80 +29 +29 душно 1004.8 1007.5 +27.9
00 16.07 штиль 0 10 км ясно +22.0 +20.5 91 +28 +28 душно 1003.4 1006.1
06 16.07 ЮЗ 1 20 км 8/0
[Ac und]
+27.4 +21.1 69 +35 +42 очень
душно
1004.4 1007.1 +21.8
12 16.07 СВ 5 20 км ясно +29.7 +22.8 67 +40 +45 очень
душно
1002.2 1004.9
18 16.07 штиль 0 10 км ясно +25.3 +21.5 79 +32 +32 очень
душно
1004.1 1006.8 +32.2
00 17.07 СВ 2 10 км ясно +24.2 +21.7 86 +31 +31 очень
душно
1004.7 1007.4

 

Местоположение метеостанции Нефтечала (Азербайджан): широта 39.40 долгота 49.25 высота над уровнем моря -24 м.

В архиве по умолчанию представлена погода в Нефтечале за последнюю неделю. Архивные данные за месяц целиком и за предыдущие месяцы, начиная с января 2011 года, Вы можете получить, выбрав интересующий диапазон дат из раскрывающегося списка и нажав кнопку "Ввод!".


*Определитесь, кто Вы:
робот инопланетянин человек

Внимание! Время в таблицах - всемирное. Для получения местного времени необходимо прибавить поправку, которая равна 4 ч.

Смотрите также архив погоды в соседних городах и на ближайших метеорологических станциях:

Погода в Алате (Азербайджан) (65 км)
Погода в Лянкяране (Азербайджан) (83 км)
Погода в Астаре (Азербайджан) (110 км)
Погода в Парсабаде (Иран) (117 км)
Погода в Баку (дендропарк) (Азербайджан) (122 км)
Погода в Маразе (Азербайджан) (129 км)
Погода в Беылагане (Азербайджан) (135 км)
Погода в Баку (Азербайджан) (136 км)
Погода в Курдамире (Азербайджан) (139 км)
Погода в Шемахе (Азербайджан) (147 км)

Пояснения к столбцам:

Ветер - указаны скорость ветра в м/с - средняя за 10 мин, порывы в срок и между сроками (в фигурных скобках) и направление, откуда дует ветер: С - северный, СВ - северо-восточный, В - восточный, ЮВ - юго-восточный, Ю - южный, ЮЗ - юго-западный, З - западный, СЗ - северо-западный.
Видимость - горизонтальная дальность видимости в метрах или километрах. При видимости от 1 до 10 км при отсутствии осадков обычно наблюдается дымка, при ухудшении видимости до 1 км и менее - туман. В сухую погоду видимость может ухудшаться дымом, пылью или мглою.
Явления - указаны атмосферные явления, наблюдавшиеся в срок или в последний час перед сроком; фигурными скобками обозначены явления, наблюдавшиеся между сроками (за 1-3 часа до срока); квадратными скобками обозначены град или гололедные отложения с указанием их диаметра в мм.
Облачность - указаны через наклонную черту общая и нижняя облачность в баллах и высота нижней границы облаков в метрах; квадратными скобками обозначены формы облаков: Ci - перистые, Cs - перисто-слоистые, Cc - перисто-кучевые, Ac - высококучевые, As - высокослоистые, Sc - слоисто-кучевые, Ns - слоисто-дождевые, Cu - кучевые, Cb - кучево-дождевые. Подробнее классификацию облаков см. в Атласе облаков (PDF).
T - Температура воздуха - температура, измеренная на высоте 2 м над землей.
Td - Температура точки росы - температура, при понижении до которой содержащийся в воздухе водяной пар достигнет насыщения.
f - Относительная влажность воздуха - влажноcть воздуха, измеренная на высоте 2 м над землей.
Te - Эффективная температура - температура, которую ощущает одетый по сезону человек в тени. Характеристика душности погоды. При расчете учитывается влияние влажности воздуха и скорости ветра на теплоощущения человека.
Tes - Эффективная температура на солнце - температура, которую ощущает человек, с поправкой на солнечный нагрев. Характеристика знойности погоды. Зависит от высоты солнца над горизонтом, облачности и скорости ветра. Ночью, в пасмурную погоду, а также при ветре 12 м/с и более поправка равна нулю.
P - Атмосферное давление - приведенное к уровню моря атмосферное давление.
Po - Атмосферное давление - измеренное на уровне метеостанции атмосферное давление.
Tmin - Минимальная температура - минимум температуры воздуха на высоте 2 м над землей.
Tmax - Максимальная температура - максимум температуры воздуха на высоте 2 м над землей.
R - Количество осадков - Количество выпавших осадков за период времени, мм. При наведении курсора мыши на число - период времени, за который выпало указанное количество осадков.
R24 - Количество осадков - Количество выпавших осадков за 24 часа, мм.
S - Снежный покров - Высота снежного покрова, см. При наведении курсора мыши на число - состояние снежного покрова и степень покрытия местности в баллах.